Regional Weather Roundup
Issued by NWS

Home | Current Version | Previous Version | Text Only | Print | Product List | Glossary Off
Versions: 1 2 3 4 5 6 7 8 9 10 11 12 13 14 15 16 17 18 19 20 21 22 23 24 25 26 27 28 29 30 31 32 33 34 35 36 37 38 39 40 41 42 43 44 45 46 47 48 49 50

000
ASUS44 KMEG 220600
RWRTN
TENNESSEE HOURLY STATE WEATHER ROUNDUP
NATIONAL WEATHER SERVICE MEMPHIS TN
100 AM CDT TUE JUL 22 2014

TNZ002-004-019-021-049-052-054-088>092-220700-
WEST TENNESSEE

CITY           SKY/WX    TMP DP  RH WIND       PRES   REMARKS
MEMPHIS INTL   CLEAR     76  65  68 NE3       30.06S
NWS MEMPHIS      N/A     69 N/A N/A MISG        N/A
JACKSON        CLEAR     69  67  93 CALM      30.06S FOG
DYERSBURG      CLEAR     70  61  73 CALM      30.07S
UNION CITY     CLEAR     68  66  94 CALM      30.06S
PARIS          CLEAR     68  63  83 N3        30.07S
LEXINGTON      CLEAR     68  66  94 CALM      30.05F
SAVANNAH       CLEAR     70  70 100 CALM      30.06S
$$

TNZ008-025-027-028-033-062-065-066-220700-
NORTH MIDDLE TENNESSEE

CITY           SKY/WX    TMP DP  RH WIND       PRES   REMARKS
NASHVILLE      PTCLDY    75  71  87 CALM      30.07S
CLARKSVILLE    CLEAR     71  66  84 CALM      30.06S
COOKEVILLE     CLEAR     70  70 100 CALM      30.10S
CROSSVILLE     CLEAR     68  66  93 CALM      30.16R
$$

TNZ061-075-076-078-094-096-097-220700-
SOUTH MIDDLE TENNESSEE

CITY           SKY/WX    TMP DP  RH WIND       PRES   REMARKS
FAYETTEVILLE   CLOUDY    72  72 100 E8        30.09S
TULLAHOMA      MOCLDY    73  70  88 CALM      30.11S
WINCHESTER     CLEAR     72  70  94 CALM      30.10R
MCMINNVILLE    PTCLDY    72  72 100 CALM      30.10S
COLUMBIA       PTCLDY    72  72 100 CALM      30.06S
SHELBYVILLE    PTCLDY    73  72  94 CALM      30.09S
$$

TNZ017-018-042-046-047-220700-
NORTHEAST TENNESSEE

CITY           SKY/WX    TMP DP  RH WIND       PRES   REMARKS
TRI CITIES     MOCLDY    68  64  87 CALM      30.15F
ELIZABETHTON   CLEAR     68  64  88 CALM      30.16S
$$

TNZ012-013-036-069-073-074-220700-
CENTRAL EAST TENNESSEE

CITY           SKY/WX    TMP DP  RH WIND       PRES   REMARKS
KNOXVILLE      CLOUDY    74  71  91 NW3       30.09F
OAK RIDGE      MOCLDY    76  72  87 CALM      30.12R
GATLINBURG     CLEAR     72  70  94 CALM      30.10S
$$

TNZ083-085-099-220700-
SOUTHEAST TENNESSEE

CITY           SKY/WX    TMP DP  RH WIND       PRES   REMARKS
CHATTANOOGA    PTCLDY    74  70  87 CALM      30.10S
$$

SKY/WX REPORTED AS FAIR MEANS FEW OR NO CLOUDS BELOW
12 THOUSAND FEET.




USA.gov is the U.S. government's official web portal to all federal, state and local government web resources and services.